QPF
0.07 0.07 0.05 0.04 0.03 0.03 0.03 0.03 0.04 0.04 0.04 0.03 0.02 0.01 0.00 0.00 0.01 0.01 0.01 0.01 0.02 0.02 0.02 0.02 0.02 0.03 0.05 0.04 0.03 0.02 0.02 0.01 0.00 0.00 0.00 0.01 0.01 0.00
0.06 0.07 0.06 0.05 0.04 0.03 0.03 0.03 0.03 0.04 0.04 0.03 0.02 0.02 0.01 0.01 0.01 0.01 0.01 0.01 0.01 0.01 0.02 0.02 0.02 0.03 0.05 0.06 0.05 0.03 0.02 0.01 0.00 0.00 0.00 0.01 0.01 0.00
0.05 0.06 0.07 0.06 0.06 0.05 0.04 0.04 0.04 0.04 0.04 0.03 0.03 0.02 0.01 0.01 0.01 0.01 0.01 0.01 0.01 0.01 0.01 0.02 0.02 0.02 0.04 0.05 0.07 0.06 0.05 0.03 0.01 0.00 0.00 0.00 0.01 0.01
0.07 0.07 0.07 0.07 0.07 0.06 0.05 0.05 0.04 0.05 0.04 0.04 0.04 0.03 0.02 0.02 0.01 0.01 0.01 0.01 0.01 0.01 0.01 0.02 0.02 0.02 0.02 0.03 0.05 0.05 0.06 0.06 0.04 0.02 0.01 0.00 0.00 0.01
0.09 0.09 0.08 0.08 0.07 0.06 0.06 0.05 0.04 0.04 0.04 0.03 0.04 0.04 0.04 0.03 0.02 0.02 0.02 0.02 0.01 0.01 0.01 0.02 0.02 0.02 0.02 0.02 0.03 0.03 0.04 0.05 0.05 0.04 0.03 0.01 0.01 0.01
0.09 0.09 0.09 0.08 0.07 0.06 0.06 0.05 0.04 0.05 0.05 0.04 0.04 0.05 0.05 0.05 0.04 0.03 0.02 0.02 0.02 0.01 0.01 0.01 0.02 0.02 0.02 0.02 0.03 0.03 0.03 0.03 0.04 0.03 0.03 0.02 0.02 0.01
0.07 0.07 0.07 0.07 0.07 0.06 0.05 0.05 0.04 0.05 0.05 0.06 0.06 0.05 0.05 0.05 0.05 0.04 0.03 0.02 0.02 0.01 0.01 0.01 0.02 0.02 0.02 0.02 0.02 0.02 0.02 0.03 0.03 0.03 0.03 0.02 0.01 0.01
0.07 0.06 0.06 0.05 0.05 0.05 0.05 0.04 0.04 0.05 0.05 0.06 0.05 0.05 0.05 0.04 0.04 0.04 0.04 0.03 0.03 0.02 0.02 0.02 0.02 0.02 0.02 0.02 0.02 0.02 0.02 0.03 0.03 0.03 0.03 0.02 0.02 0.01
0.06 0.07 0.06 0.05 0.04 0.05 0.05 0.04 0.04 0.04 0.05 0.05 0.06 0.05 0.04 0.04 0.04 0.04 0.04 0.04 0.03 0.02 0.03 0.03 0.02 0.02 0.02 0.02 0.02 0.02 0.02 0.03 0.03 0.03 0.03 0.02 0.02 0.02
0.05 0.05 0.06 0.06 0.05 0.05 0.05 0.04 0.03 0.03 0.03 0.04 0.04 0.03 0.03 0.04 0.05 0.05 0.06 0.06 0.05 0.04 0.04 0.04 0.03 0.03 0.02 0.02 0.02 0.02 0.02 0.02 0.03 0.04 0.04 0.03 0.02 0.02
0.05 0.05 0.05 0.06 0.06 0.05 0.05 0.04 0.03 0.03 0.03 0.04 0.04 0.05 0.05 0.05 0.06 0.08 0.08 0.08 0.07 0.06 0.05 0.04 0.03 0.03 0.03 0.03 0.03 0.03 0.03 0.03 0.03 0.03 0.03 0.03 0.03 0.02
0.04 0.04 0.05 0.06 0.07 0.06 0.05 0.04 0.04 0.04 0.03 0.03 0.04 0.04 0.05 0.06 0.07 0.07 0.07 0.08 0.07 0.06 0.05 0.04 0.04 0.04 0.05 0.05 0.04 0.04 0.04 0.04 0.04 0.04 0.03 0.03 0.03 0.03
0.04 0.04 0.05 0.06 0.08 0.08 0.06 0.05 0.04 0.03 0.03 0.04 0.04 0.04 0.04 0.05 0.06 0.06 0.06 0.06 0.06 0.05 0.05 0.05 0.04 0.04 0.04 0.05 0.05 0.04 0.05 0.05 0.05 0.05 0.05 0.05 0.04 0.04
0.03 0.03 0.04 0.05 0.06 0.07 0.07 0.06 0.05 0.04 0.03 0.04 0.04 0.04 0.04 0.04 0.05 0.06 0.06 0.06 0.06 0.05 0.05 0.05 0.05 0.04 0.04 0.05 0.05 0.05 0.05 0.05 0.05 0.04 0.04 0.05 0.05 0.05
0.04 0.04 0.04 0.04 0.05 0.05 0.06 0.06 0.06 0.06 0.06 0.05 0.04 0.04 0.04 0.04 0.04 0.05 0.06 0.06 0.06 0.05 0.06 0.06 0.05 0.05 0.05 0.06 0.06 0.05 0.05 0.05 0.05 0.05 0.04 0.03 0.03 0.04
0.05 0.05 0.04 0.04 0.04 0.05 0.06 0.06 0.06 0.06 0.06 0.06 0.04 0.04 0.04 0.04 0.04 0.04 0.05 0.05 0.05 0.05 0.05 0.05 0.06 0.06 0.06 0.06 0.06 0.06 0.05 0.05 0.05 0.05 0.04 0.04 0.03 0.03
0.05 0.05 0.05 0.05 0.05 0.05 0.06 0.06 0.06 0.06 0.06 0.05 0.04 0.04 0.04 0.04 0.05 0.04 0.04 0.04 0.04 0.05 0.05 0.05 0.06 0.07 0.07 0.07 0.07 0.06 0.05 0.05 0.05 0.05 0.05 0.04 0.04 0.03
0.04 0.06 0.06 0.06 0.06 0.06 0.06 0.06 0.06 0.06 0.06 0.05 0.04 0.04 0.04 0.04 0.04 0.04 0.04 0.04 0.04 0.04 0.04 0.05 0.06 0.07 0.08 0.08 0.07 0.06 0.05 0.05 0.04 0.05 0.05 0.04 0.04 0.04
0.04 0.05 0.05 0.05 0.05 0.05 0.05 0.05 0.05 0.05 0.05 0.05 0.05 0.04 0.04 0.04 0.04 0.04 0.04 0.04 0.04 0.04 0.04 0.04 0.05 0.06 0.07 0.07 0.06 0.05 0.05 0.05 0.05 0.05 0.05 0.04 0.04 0.04
0.04 0.04 0.04 0.04 0.04 0.04 0.04 0.04 0.04 0.04 0.04 0.04 0.04 0.04 0.04 0.04 0.04 0.04 0.04 0.04 0.04 0.04 0.04 0.04 0.04 0.04 0.05 0.05 0.05 0.05 0.05 0.04 0.04 0.04 0.04 0.04 0.04 0.04
0.04 0.04 0.04 0.03 0.03 0.03 0.03 0.03 0.03 0.03 0.03 0.03 0.03 0.04 0.04 0.04 0.03 0.03 0.03 0.04 0.04 0.04 0.04 0.04 0.04 0.04 0.04 0.06 0.06 0.06 0.05 0.04 0.04 0.03 0.04 0.04 0.04 0.04
0.03 0.03 0.03 0.03 0.03 0.03 0.03 0.03 0.03 0.03 0.03 0.03 0.03 0.03 0.04 0.04 0.04 0.03 0.03 0.03 0.03 0.03 0.04 0.04 0.04 0.04 0.05 0.06 0.06 0.05 0.05 0.04 0.04 0.05 0.04 0.04 0.04 0.03
0.04 0.04 0.04 0.04 0.03 0.03 0.03 0.03 0.03 0.03 0.03 0.03 0.03 0.03 0.03 0.04 0.04 0.04 0.03 0.03 0.03 0.03 0.04 0.04 0.05 0.05 0.05 0.05 0.06 0.05 0.05 0.05 0.04 0.05 0.05 0.04 0.03 0.02
MSLP
1005.72 1007.08 1008.45 1009.80 1011.11 1012.36 1013.54 1014.65 1015.70 1016.71 1017.67 1018.59 1019.48 1020.31 1021.09 1021.81 1022.46 1023.05 1023.58 1024.07 1024.54 1024.99 1025.45 1025.92 1026.41 1026.90 1027.39 1027.86 1028.31 1028.73 1029.11 1029.47 1029.80 1030.12 1030.42 1030.70 1030.96 1031.19
1005.04 1006.40 1007.74 1009.06 1010.33 1011.53 1012.68 1013.78 1014.83 1015.85 1016.84 1017.81 1018.74 1019.63 1020.46 1021.23 1021.92 1022.55 1023.11 1023.63 1024.11 1024.59 1025.06 1025.54 1026.02 1026.51 1026.98 1027.45 1027.88 1028.29 1028.67 1029.03 1029.37 1029.70 1030.01 1030.32 1030.60 1030.86
1004.40 1005.70 1007.00 1008.26 1009.48 1010.66 1011.78 1012.87 1013.94 1014.99 1016.02 1017.04 1018.02 1018.96 1019.83 1020.64 1021.37 1022.02 1022.61 1023.14 1023.64 1024.13 1024.61 1025.09 1025.57 1026.05 1026.52 1026.96 1027.38 1027.77 1028.13 1028.46 1028.79 1029.11 1029.42 1029.73 1030.02 1030.30
1003.81 1005.01 1006.22 1007.41 1008.58 1009.72 1010.84 1011.94 1013.03 1014.12 1015.20 1016.26 1017.29 1018.27 1019.19 1020.02 1020.77 1021.43 1022.03 1022.57 1023.08 1023.57 1024.06 1024.54 1025.03 1025.50 1025.96 1026.38 1026.78 1027.13 1027.46 1027.77 1028.07 1028.36 1028.65 1028.95 1029.24 1029.53
1003.34 1004.38 1005.46 1006.56 1007.66 1008.77 1009.87 1010.98 1012.10 1013.23 1014.35 1015.46 1016.53 1017.54 1018.47 1019.31 1020.07 1020.74 1021.34 1021.88 1022.39 1022.89 1023.38 1023.86 1024.35 1024.82 1025.26 1025.67 1026.04 1026.38 1026.67 1026.95 1027.21 1027.47 1027.74 1028.02 1028.30 1028.59
1003.06 1003.90 1004.82 1005.78 1006.79 1007.83 1008.91 1010.01 1011.15 1012.30 1013.45 1014.58 1015.67 1016.69 1017.63 1018.48 1019.23 1019.90 1020.49 1021.03 1021.54 1022.04 1022.53 1023.02 1023.51 1023.98 1024.42 1024.82 1025.18 1025.49 1025.77 1026.02 1026.25 1026.49 1026.73 1026.99 1027.27 1027.56
1003.04 1003.64 1004.35 1005.16 1006.04 1006.99 1008.00 1009.07 1010.18 1011.32 1012.47 1013.60 1014.69 1015.71 1016.64 1017.48 1018.23 1018.89 1019.48 1020.02 1020.54 1021.04 1021.54 1022.03 1022.52 1022.99 1023.43 1023.83 1024.18 1024.48 1024.75 1024.99 1025.22 1025.44 1025.68 1025.94 1026.21 1026.51
1003.31 1003.66 1004.15 1004.76 1005.48 1006.30 1007.21 1008.19 1009.23 1010.31 1011.42 1012.51 1013.57 1014.56 1015.48 1016.32 1017.06 1017.73 1018.33 1018.89 1019.42 1019.93 1020.43 1020.94 1021.42 1021.89 1022.33 1022.73 1023.08 1023.39 1023.66 1023.91 1024.15 1024.38 1024.63 1024.90 1025.19 1025.52
1003.88 1003.99 1004.25 1004.65 1005.17 1005.82 1006.56 1007.40 1008.32 1009.29 1010.30 1011.32 1012.32 1013.27 1014.18 1015.01 1015.76 1016.46 1017.09 1017.67 1018.23 1018.76 1019.28 1019.79 1020.28 1020.74 1021.18 1021.57 1021.93 1022.25 1022.54 1022.81 1023.07 1023.34 1023.62 1023.92 1024.26 1024.62
1004.72 1004.60 1004.64 1004.81 1005.12 1005.55 1006.10 1006.74 1007.48 1008.29 1009.16 1010.06 1010.98 1011.88 1012.76 1013.60 1014.39 1015.12 1015.80 1016.44 1017.05 1017.62 1018.16 1018.67 1019.16 1019.61 1020.03 1020.41 1020.77 1021.09 1021.40 1021.70 1022.01 1022.32 1022.66 1023.01 1023.40 1023.81
1005.74 1005.44 1005.27 1005.23 1005.31 1005.50 1005.81 1006.22 1006.73 1007.34 1008.03 1008.79 1009.61 1010.45 1011.31 1012.16 1012.99 1013.78 1014.54 1015.25 1015.91 1016.53 1017.10 1017.62 1018.10 1018.54 1018.94 1019.30 1019.64 1019.97 1020.30 1020.63 1020.97 1021.34 1021.74 1022.16 1022.61 1023.09
1006.86 1006.42 1006.08 1005.83 1005.69 1005.64 1005.69 1005.84 1006.10 1006.48 1006.97 1007.57 1008.26 1009.04 1009.87 1010.74 1011.61 1012.48 1013.32 1014.11 1014.85 1015.52 1016.12 1016.66 1017.14 1017.55 1017.92 1018.26 1018.58 1018.90 1019.23 1019.58 1019.96 1020.38 1020.84 1021.33 1021.85 1022.40
1008.02 1007.47 1006.99 1006.57 1006.21 1005.93 1005.73 1005.62 1005.63 1005.77 1006.05 1006.47 1007.03 1007.72 1008.51 1009.38 1010.29 1011.22 1012.14 1013.01 1013.83 1014.56 1015.20 1015.76 1016.24 1016.64 1016.99 1017.30 1017.59 1017.89 1018.22 1018.58 1018.98 1019.44 1019.94 1020.50 1021.09 1021.71
1009.17 1008.55 1007.96 1007.39 1006.86 1006.36 1005.93 1005.58 1005.35 1005.25 1005.31 1005.55 1005.96 1006.54 1007.27 1008.12 1009.04 1010.01 1010.98 1011.92 1012.80 1013.59 1014.28 1014.87 1015.36 1015.76 1016.10 1016.39 1016.67 1016.95 1017.27 1017.63 1018.05 1018.53 1019.07 1019.67 1020.31 1020.99
1010.27 1009.62 1008.95 1008.28 1007.61 1006.94 1006.32 1005.76 1005.30 1004.99 1004.85 1004.89 1005.14 1005.58 1006.21 1006.99 1007.88 1008.84 1009.82 1010.80 1011.72 1012.56 1013.30 1013.93 1014.45 1014.88 1015.23 1015.53 1015.80 1016.08 1016.39 1016.75 1017.17 1017.66 1018.22 1018.85 1019.54 1020.26
1011.35 1010.68 1009.98 1009.24 1008.47 1007.69 1006.92 1006.19 1005.56 1005.05 1004.70 1004.56 1004.62 1004.89 1005.37 1006.02 1006.81 1007.70 1008.65 1009.61 1010.55 1011.42 1012.20 1012.88 1013.46 1013.94 1014.34 1014.68 1014.99 1015.29 1015.61 1015.98 1016.40 1016.89 1017.46 1018.10 1018.80 1019.56
1012.41 1011.75 1011.05 1010.29 1009.47 1008.62 1007.75 1006.91 1006.14 1005.46 1004.94 1004.59 1004.44 1004.51 1004.78 1005.24 1005.87 1006.63 1007.47 1008.37 1009.27 1010.15 1010.97 1011.72 1012.38 1012.94 1013.43 1013.86 1014.23 1014.59 1014.95 1015.34 1015.77 1016.26 1016.82 1017.46 1018.17 1018.94
1013.46 1012.84 1012.16 1011.42 1010.60 1009.73 1008.83 1007.92 1007.05 1006.24 1005.55 1005.01 1004.63 1004.46 1004.48 1004.70 1005.09 1005.65 1006.33 1007.11 1007.94 1008.80 1009.65 1010.46 1011.21 1011.90 1012.51 1013.06 1013.54 1013.99 1014.42 1014.86 1015.32 1015.82 1016.38 1017.01 1017.70 1018.46
1014.50 1013.93 1013.30 1012.60 1011.82 1010.98 1010.08 1009.15 1008.22 1007.32 1006.48 1005.75 1005.15 1004.71 1004.45 1004.38 1004.50 1004.80 1005.27 1005.88 1006.62 1007.43 1008.29 1009.16 1010.02 1010.84 1011.60 1012.30 1012.93 1013.51 1014.04 1014.54 1015.05 1015.57 1016.13 1016.75 1017.43 1018.16
1015.48 1014.96 1014.40 1013.77 1013.06 1012.28 1011.42 1010.50 1009.55 1008.58 1007.62 1006.72 1005.90 1005.20 1004.65 1004.28 1004.10 1004.12 1004.35 1004.77 1005.37 1006.11 1006.96 1007.89 1008.85 1009.80 1010.73 1011.59 1012.39 1013.11 1013.76 1014.37 1014.94 1015.50 1016.07 1016.69 1017.34 1018.05
1016.34 1015.88 1015.38 1014.83 1014.20 1013.49 1012.70 1011.82 1010.87 1009.86 1008.81 1007.77 1006.75 1005.81 1004.99 1004.33 1003.86 1003.60 1003.58 1003.80 1004.25 1004.90 1005.74 1006.70 1007.74 1008.82 1009.90 1010.92 1011.88 1012.76 1013.55 1014.26 1014.91 1015.53 1016.14 1016.76 1017.41 1018.10
1017.00 1016.59 1016.15 1015.66 1015.12 1014.49 1013.76 1012.93 1012.00 1010.98 1009.87 1008.72 1007.55 1006.41 1005.36 1004.45 1003.72 1003.21 1002.96 1002.98 1003.29 1003.85 1004.64 1005.61 1006.72 1007.89 1009.09 1010.26 1011.37 1012.39 1013.32 1014.14 1014.89 1015.58 1016.24 1016.88 1017.54 1018.22
1017.40 1017.01 1016.61 1016.18 1015.69 1015.13 1014.46 1013.69 1012.79 1011.77 1010.63 1009.41 1008.14 1006.86 1005.64 1004.53 1003.60 1002.89 1002.45 1002.31 1002.48 1002.95 1003.68 1004.64 1005.77 1007.00 1008.29 1009.57 1010.80 1011.94 1012.98 1013.92 1014.77 1015.54 1016.26 1016.95 1017.64 1018.33
Thickness
5529 5533 5538 5542 5546 5550 5553 5555 5556 5557 5562 5565 5569 5572 5573 5574 5576 5577 5579 5580 5581 5583 5584 5584 5585 5585 5585 5585 5585 5584 5582 5581 5579 5578 5576 5575 5573 5571
5518 5523 5528 5532 5536 5541 5545 5548 5550 5552 5553 5559 5562 5565 5565 5566 5567 5569 5571 5572 5573 5575 5576 5577 5577 5577 5577 5577 5577 5576 5575 5574 5572 5571 5569 5567 5566 5564
5508 5513 5518 5523 5527 5531 5535 5538 5541 5544 5546 5549 5552 5555 5556 5557 5558 5560 5561 5563 5565 5566 5567 5568 5569 5570 5569 5569 5569 5568 5568 5566 5565 5564 5562 5560 5558 5556
5498 5503 5508 5512 5517 5522 5526 5529 5533 5536 5538 5540 5543 5545 5547 5549 5550 5550 5552 5554 5556 5558 5559 5560 5561 5561 5562 5561 5561 5561 5560 5559 5557 5556 5554 5553 5550 5547
5488 5492 5497 5501 5507 5511 5516 5520 5523 5527 5530 5533 5535 5536 5537 5538 5539 5540 5542 5543 5546 5548 5550 5551 5552 5553 5553 5552 5552 5552 5552 5551 5549 5548 5546 5543 5541 5539
5477 5482 5486 5491 5497 5501 5505 5509 5513 5516 5520 5523 5525 5527 5527 5527 5528 5530 5531 5533 5535 5538 5540 5541 5543 5544 5544 5545 5545 5545 5544 5542 5541 5539 5538 5535 5533 5531
5466 5471 5477 5482 5487 5492 5496 5499 5502 5506 5509 5512 5515 5516 5518 5518 5520 5522 5523 5524 5525 5528 5529 5532 5533 5534 5535 5536 5536 5536 5535 5534 5533 5531 5529 5527 5524 5522
5456 5461 5465 5470 5476 5481 5485 5489 5493 5497 5500 5503 5506 5509 5512 5512 5512 5513 5513 5513 5517 5519 5519 5520 5522 5524 5527 5528 5528 5528 5527 5526 5524 5523 5521 5518 5515 5513
5443 5449 5454 5459 5464 5468 5473 5477 5481 5485 5490 5494 5497 5501 5503 5505 5505 5505 5505 5506 5510 5510 5508 5510 5511 5514 5517 5519 5519 5519 5518 5517 5515 5514 5512 5509 5506 5503
5432 5436 5442 5447 5452 5456 5460 5464 5468 5473 5478 5482 5488 5492 5492 5493 5495 5497 5498 5497 5497 5498 5499 5500 5502 5505 5507 5509 5510 5510 5509 5507 5505 5504 5502 5500 5497 5494
5419 5424 5430 5435 5440 5444 5448 5452 5457 5461 5465 5468 5473 5477 5480 5482 5484 5484 5485 5485 5487 5488 5488 5490 5493 5494 5496 5498 5499 5499 5498 5497 5495 5493 5491 5489 5486 5483
5406 5412 5417 5422 5427 5431 5435 5440 5444 5449 5451 5455 5458 5462 5466 5469 5472 5474 5476 5476 5476 5477 5478 5479 5481 5480 5482 5486 5487 5487 5486 5485 5484 5482 5480 5478 5475 5471
5394 5400 5405 5410 5415 5419 5424 5428 5433 5436 5438 5441 5444 5448 5451 5454 5458 5461 5463 5466 5467 5468 5470 5469 5470 5469 5470 5472 5474 5474 5474 5473 5472 5470 5468 5466 5463 5460
5383 5388 5393 5398 5403 5407 5411 5415 5418 5421 5424 5427 5430 5433 5437 5441 5444 5447 5450 5452 5454 5457 5458 5459 5459 5459 5459 5459 5460 5461 5460 5460 5459 5457 5456 5453 5450 5448
5371 5376 5380 5385 5390 5394 5398 5401 5404 5406 5409 5413 5416 5419 5423 5426 5429 5432 5435 5437 5439 5441 5444 5446 5448 5448 5448 5449 5449 5448 5446 5446 5446 5444 5442 5440 5438 5435
5358 5362 5367 5371 5376 5380 5383 5386 5389 5393 5396 5399 5402 5404 5406 5410 5414 5417 5420 5422 5424 5426 5429 5431 5433 5435 5435 5436 5436 5435 5434 5432 5433 5430 5428 5426 5424 5423
5346 5350 5354 5357 5361 5364 5368 5371 5375 5379 5382 5385 5387 5389 5391 5395 5399 5402 5405 5407 5409 5411 5413 5415 5417 5418 5420 5420 5420 5421 5420 5419 5418 5416 5413 5412 5412 5410
5334 5337 5340 5343 5346 5349 5353 5356 5360 5363 5367 5370 5373 5375 5377 5380 5383 5386 5389 5391 5394 5397 5398 5399 5400 5401 5402 5403 5406 5406 5406 5405 5404 5401 5400 5399 5399 5397
5319 5321 5325 5328 5331 5334 5338 5342 5345 5348 5351 5355 5358 5361 5363 5365 5368 5371 5374 5376 5379 5382 5383 5384 5385 5386 5387 5390 5392 5392 5391 5391 5389 5387 5386 5385 5385 5385
5303 5307 5311 5314 5317 5320 5324 5327 5330 5334 5337 5340 5343 5346 5349 5352 5355 5357 5360 5362 5365 5367 5368 5369 5370 5372 5374 5376 5376 5377 5376 5376 5374 5373 5371 5370 5370 5370
5289 5292 5296 5299 5303 5306 5310 5313 5316 5319 5323 5326 5328 5331 5334 5338 5341 5343 5346 5349 5351 5353 5354 5356 5357 5357 5357 5358 5359 5362 5361 5360 5359 5358 5357 5355 5355 5355
5275 5278 5282 5285 5289 5293 5296 5299 5302 5306 5309 5312 5315 5317 5321 5324 5327 5329 5332 5334 5337 5339 5340 5341 5342 5342 5343 5345 5346 5347 5345 5343 5342 5342 5341 5341 5340 5341
5263 5266 5269 5272 5276 5279 5283 5286 5289 5292 5295 5298 5301 5304 5307 5310 5313 5316 5319 5321 5323 5324 5325 5326 5327 5328 5329 5330 5330 5330 5329 5328 5327 5326 5326 5326 5326 5327